• Processing (Info)

  • MPEC 2020-F78 : 2020 FM2

    The following Minor Planet Electronic Circular may be linked-to from your own Web pages, but must not otherwise be redistributed electronically.

    A form allowing access to any MPEC is at the bottom of this page.


    Read MPEC 2020-F77 Read MPEC 2020-F79


    M.P.E.C. 2020-F78                                Issued 2020 March 22, 19:42 UT
    
         The Minor Planet Electronic Circulars contain information on unusual
             minor planets and routine data on comets.  They are published
        on behalf of Division F of the International Astronomical Union by the
              Minor Planet Center, Smithsonian Astrophysical Observatory,
                              Cambridge, MA 02138, U.S.A.
    
                 Prepared using the Tamkin Foundation Computer Network
    
                                  MPC@CFA.HARVARD.EDU
                URL https://www.minorplanetcenter.net/    ISSN 1523-6714
    
                                    2020 FM2                                 
    
    
    Observations:
         K20F02M* C2020 03 21.34218609 42 04.37 -23 07 09.3          17.54cVEF078T05
         K20F02M  C2020 03 21.35999009 43 30.14 -22 42 21.3          17.42cVEF078T05
         K20F02M  C2020 03 21.43105909 49 16.40 -21 00 03.6          17.57cVEF078T05
         K20F02M  C2020 03 21.44736209 50 37.28 -20 35 47.7          17.65cVEF078T05
         K20F02M  C2020 03 21.99048 10 40 04.79 -05 33 18.1          17.1 VVEF078033
         K20F02M  C2020 03 21.99071 10 40 06.01 -05 32 52.8          17.1 VVEF078033
         K20F02M  C2020 03 21.99094 10 40 07.23 -05 32 27.8          17.2 VVEF078033
         K20F02M KC2020 03 22.04790 10 45 13.10 -03 47 42.1          16.9 VqEF078I93
         K20F02M KC2020 03 22.05241 10 45 36.88 -03 39 27.9          17.0 VqEF078I93
         K20F02M KC2020 03 22.05689 10 46 00.52 -03 31 17.4          17.0 VqEF078I93
         K20F02M KC2020 03 22.05941 10 46 13.86 -03 26 40.8          17.0 VqEF078I93
         K20F02M KC2020 03 22.07108 10 47 11.90 -03 06 14.7          16.6 RVEF078K61
         K20F02M KC2020 03 22.07179 10 47 15.68 -03 04 57.4          16.4 RVEF078K61
         K20F02M KC2020 03 22.07201 10 47 16.88 -03 04 34.0          16.4 RVEF078K61
         K20F02M KC2020 03 22.07332 10 47 23.95 -03 02 09.6          16.2 RVEF078K61
         K20F02M KC2020 03 22.08255 10 49 05.97 -02 23 34.7          16.8 VUEF078X31
         K20F02M KC2020 03 22.08303 10 49 08.41 -02 22 42.5          17.1 VUEF078X31
         K20F02M KC2020 03 22.08398 10 49 13.34 -02 20 58.2          16.6 VUEF078X31
         K20F02M KC2020 03 22.12063 10 53 02.72 -01 32 46.2          17.0 VqEF078858
         K20F02M KC2020 03 22.12142910 52 50.98 -01 32 26.5          17.0 VuEF078H21
         K20F02M KC2020 03 22.12154 10 53 07.52 -01 31 07.3          16.9 VqEF078858
         K20F02M KC2020 03 22.12221010 52 55.06 -01 31 00.8          16.9 VuEF078H21
         K20F02M KC2020 03 22.12245 10 53 12.30 -01 29 27.6          16.5 VqEF078858
         K20F02M KC2020 03 22.12298710 52 59.10 -01 29 35.9          16.9 VuEF078H21
         K20F02M KC2020 03 22.12376910 53 03.19 -01 28 09.9          17.0 VuEF078H21
         K20F02M KC2020 03 22.12442510 53 06.61 -01 26 58.2          16.9 VuEF078H21
         K20F02M KC2020 03 22.12497210 53 09.45 -01 25 58.2          16.9 VuEF078H21
         K20F02M KC2020 03 22.13603 10 54 23.58 -01 04 40.9          16.7 VqEF078858
         K20F02M KC2020 03 22.13694 10 54 28.36 -01 03 01.2          16.6 VqEF078858
         K20F02M KC2020 03 22.13785 10 54 33.14 -01 01 22.5          16.6 VqEF078858
         K20F02M KC2020 03 22.14519 10 55 11.47 -00 47 58.5          17.0 VqEF078858
         K20F02M KC2020 03 22.14610 10 55 16.27 -00 46 18.3          16.8 VqEF078858
         K20F02M  C2020 03 22.15692 10 56 17.36 -00 25 55.7          16.6 GVEF078I52
         K20F02M  C2020 03 22.15729 10 56 19.32 -00 25 14.1          16.7 GVEF078I52
         K20F02M  C2020 03 22.15748 10 56 20.22 -00 24 55.3          16.6 GVEF078I52
         K20F02M KC2020 03 22.16383 10 56 48.60 -00 13 58.5          16.8 VqEF078858
         K20F02M KC2020 03 22.16474 10 56 53.35 -00 12 18.3          16.8 VqEF078858
         K20F02M KC2020 03 22.16565 10 56 58.11 -00 10 38.3          16.9 VqEF078858
         K20F02M |C2020 03 22.24338 11 03 37.95 +02 11 19.0                VEF078H06
         K20F02M |C2020 03 22.24595 11 03 51.14 +02 15 59.9                VEF078H06
         K20F02M |C2020 03 22.24853 11 04 04.31 +02 20 40.3          16.5 GVEF078H06
         K20F02M  C2020 03 22.64522 11 39 00.52 +13 41 35.5          17.4 RrEF078P93
         K20F02M  C2020 03 22.64772 11 39 12.63 +13 45 33.4          17.3 RrEF078P93
         K20F02M  C2020 03 22.65148 11 39 30.82 +13 51 30.7          17.1 RrEF078P93
         K20F02M  C2020 03 22.65274 11 39 36.79 +13 53 29.1          17.0 RrEF078P93
         K20F02M KC2020 03 22.79287 11 52 21.33 +17 23 16.3          17.4 GVEF078K63
         K20F02M KC2020 03 22.79573 11 52 35.10 +17 27 31.3          17.7 GVEF078K63
         K20F02M KC2020 03 22.79844 11 52 48.23 +17 31 30.3          17.1 GVEF078K63
         K20F02M KC2020 03 22.80782 11 53 27.78 +17 44 03.9          17.0 GVEF078113
         K20F02M KC2020 03 22.80840 11 53 30.62 +17 44 55.5          17.1 GVEF078113
         K20F02M KC2020 03 22.80899 11 53 33.47 +17 45 47.1          17.1 GVEF078113
         K20F02M KC2020 03 22.80957 11 53 36.24 +17 46 38.0          17.1 GVEF078113
         K20F02M KC2020 03 22.81015 11 53 39.04 +17 47 29.4          17.2 GVEF078113
         K20F02M KC2020 03 22.81073 11 53 41.84 +17 48 20.7          17.1 GVEF078113
         K20F02M KC2020 03 22.81132 11 53 44.63 +17 49 11.9          17.3 GVEF078113
         K20F02M KC2020 03 22.81192 11 53 47.51 +17 50 03.9          17.1 GVEF078113
    
    Observer details:
    033 Karl Schwarzschild Observatory, Tautenburg.  Observers U. Laux, S. Melnikov,
        B. Stecklum.  Measurer B. Stecklum.  1.34-m f/3 Schmidt + CCD.
    113 Volkssternwarte Drebach, Schoenbrunn.  Observer G. Lehmann.  0.5-m f/4.6 
       reflector + CCD.
    858 Tebbutt Observatory, Edgewood.  Observer F. B. Zoltowski.  0.15-m refractor 
       + CCD.
    H06 iTelescope Observatory, Mayhill.  Observer H. Sato.  0.25-m f/3.4 
       astrograph + CCD.
    H21 Astronomical Research Observatory, Westfield.  Observer R. Holmes.  
        Measurers S. Foglia, L. Buzzi, T. Linder, R. Holmes.  0.76-m f/3.0 
       astrograph + CCD.
    I52 Steward Observatory, Mt. Lemmon Station.  Observer D. C. Fuls.  Measurers 
       E. J. Christensen, G. A. Farneth, D. C. Fuls, A. R. Gibbs, A. D. Grauer, H. 
       Groeller, R. A. Kowalski, S. M. Larson, G. J. Leonard, T. A. Pruyne, D. 
       Rankin, R. L. Seaman, F. C. Shelly, K. W. Wierzchos.  1.0-m reflector + CCD.
    I93 St Pardon de Conques.  Observer F. Losse.  0.40-m f/3.7 reflector + CCD.
    K61 Rokycany Observatory.  Observer M. Adamovsky.  0.51-m f/6.8 reflector + CCD.
    K63 G. Pascoli Observatory, Castelvecchio Pascoli.  Observer R. Bacci.  0.4-m 
       f/3.2 Newtonian reflector + CCD.
    P93 Space Tracking and Communications Center, JAXA.  Observers S. Urakawa, T. 
       Nimura.  0.5-m f/2.0 reflector + CCD.
    T05 ATLAS-HKO, Haleakala.  Observers L. Denneau, J. Tonry, A. Heinze, H. 
       Weiland, H. Flewelling.  Measurers L. Denneau, J. Tonry, A. Heinze, H. 
       Weiland, H. Flewelling, B. Stalder, A. Fitzsimmons, J. Robinson, N. Erasmus. 
        0.5-m reflector + CCD.
    X31 Galileo Galilei Observatory, Oro Verde.  Observer C. Fornari.  0.40-m f/8 
       Ritchey-Chretien + CCD.
    
    Orbital elements:
    2020 FM2                                                 Earth MOID = 0.0080 AU
    Epoch 2020 May 31.0 TT = JDT 2459000.5                  Veres
    M  55.97733              (2000.0)            P               Q
    n   0.63305785     Peri.  339.16255     -0.94456638     -0.32820840
    a   1.3433024      Node   181.74720     +0.32670283     -0.93700078
    e   0.2620758      Incl.   16.34214     +0.03255174     -0.11961931
    P   1.56           H   26.4           G   0.15           U   6
    Residuals in seconds of arc
    200321 T05 (1.5-  1.7-)   200322 H21  0.7-  0.5-    200322 H06  0.3-  0.5-
    200321 T05  0.0   0.3+    200322 858  0.4+  0.3+    200322 H06  0.5+  1.0+
    200321 T05  0.0   0.0     200322 H21  0.6-  0.3-    200322 H06  0.4+  1.0+
    200321 T05 (2.5+  3.0+)   200322 858  0.3+  0.4+    200322 P93  0.8-  0.7-
    200321 033  0.6-  1.0-    200322 H21  0.7-  0.5-    200322 P93  0.2-  0.5-
    200321 033  0.5-  0.7-    200322 H21  0.5-  0.2-    200322 P93  0.4+  0.0
    200321 033  0.5-  0.8-    200322 H21  0.5-  0.3-    200322 P93  1.2-  1.1-
    200322 I93  0.0   0.6-    200322 H21  0.7-  0.3-    200322 K63  0.2+  0.4-
    200322 I93  0.1-  0.2-    200322 858  0.2+  0.6+    200322 K63  0.9-  0.5+
    200322 I93  0.1-  0.4-    200322 858  0.5+  0.7+    200322 K63  0.5-  0.9-
    200322 I93  0.4+  0.2+    200322 858  0.7+  0.2-    200322 113  0.1-  0.1-
    200322 K61 (1.3+  1.7+)   200322 858  0.2-  0.2+    200322 113  0.6+  0.5+
    200322 K61  0.9+  1.2+    200322 858  0.6+  0.8+    200322 113  0.7+  0.2+
    200322 K61  1.2+  0.5+    200322 I52  0.7-  1.0-    200322 113  0.4+  0.1+
    200322 K61 (1.8+  1.5+)   200322 I52  0.2-  0.1+    200322 113  0.5+  0.5+
    200322 X31  0.5+  0.1+    200322 I52 (1.6-  1.9-)   200322 113  0.6+  0.9+
    200322 X31  0.1-  0.3-    200322 858  0.1-  0.3-    200322 113  0.1-  0.3+
    200322 X31  0.3+  0.1-    200322 858  0.2+  0.3+    200322 113  0.1-  0.4-
    200322 858  0.2+  1.0+    200322 858  0.7+  0.7+
    
    Ephemeris:
    2020 FM2                 a,e,i = 1.34, 0.26, 16                  q = 0.9913
    Date    TT    R. A. (2000) Decl.     Delta      r    Elong.  Phase     V
    2020 02 21    04 57 01.7 -52 58 13   0.1619  0.9953    87.6    83.0    25.3
    ...
    2020 03 07    05 16 58.0 -52 50 08   0.08441 0.9911    86.7    88.4    24.1
    ...
    2020 03 15    05 58 09.7 -51 58 12   0.04076 0.9961    91.1    86.6    22.5
    ...
    2020 03 21    09 13 35.4 -29 56 14   0.01052 1.0030   130.1    49.4    18.4
    2020 03 22    10 41 13.3 -05 03 20   0.0085231.0044   158.4    21.4    17.1
    2020 03 23    12 08 22.0 +22 14 16   0.0099081.0058   156.7    23.0    17.5
    ...
    2020 03 29    15 20 26.8 +50 21 03   0.03979 1.0160   115.2    62.8    21.7
    ...
    2020 04 06    15 58 05.6 +51 40 25   0.08393 1.0332   110.6    65.0    23.4
    ...
    2020 04 21    16 07 42.5 +50 51 29   0.1647  1.0751   111.0    60.7    24.8
    
    A. U. Tomatic                (C) Copyright 2020 MPC           M.P.E.C. 2020-F78
    


    Read MPEC 2020-F77 Read MPEC 2020-F79


    MPEC number:

    Enter an MPEC number in one of the following forms:

    • 1997-B01 (the full form)
    • J97B01 (the packed version of the full form)
    • B01 (the abbreviated form)